User: anonymous
Location: Muenchen
(48.1800°N, 11.5800°E)
Time: 10:24:14
(UTC+02:00)
Language:

Cosmos 2233 Rocket - Orbit

View from above orbital plane
View from above orbital plane
View from above satellite
View from above satellite

Ground track
Ground track

The orbit data is extracted from the following two-line orbital elements,

1 22488U 93008B   14114.81987353  .00000087  00000-0  71688-4 0  8470
2 22488 082.9456 213.6880 0025348 202.7799 289.8332 13.77614362 66003
Epoch (UTC): 24 April 2014 19:40:37
Eccentricity: 0.0025348
inclination: 82.9456°
perigee height: 954 km
apogee height: 991 km
right ascension of ascending node: 213.6880°
argument of perigee: 202.7799°
revolutions per day: 13.77614362
mean anomaly at epoch: 289.8332°
orbit number at epoch: 6600

The dashed part of the orbit path shows where the satellite is in the earth's shadow,  

DLR